Location: Dompnac
(44.5644°N, 4.1026°E)
Time: 10:55:20
(UTC+00:00)

Cosmos 1544 - Pass Details

Date: 19 September 2020
Orbit: 471 x 491 km, 82.5° (Epoch: 29 October)

Event Time Altitude Azimuth Distance (km) Brightness Sun altitude
Rises 18:28:00 0° 200° (SSW) 2,553 6.9 -8.3°
Reaches altitude 10° 18:30:10 10° 207° (SSW) 1,675 6.0 -8.6°
Maximum altitude 18:33:42 46° 282° (WNW) 663 4.3 -9.3°
Drops below altitude 10° 18:37:16 10° 357° (N) 1,679 6.0 -9.9°
Sets 18:39:26 0° 3° (N) 2,561 6.8 -10.3°
